Location: St Paul
(33.4390°N, 83.7350°W)
Time: 00:17:11
(UTC-04:00)

Meteor 2-21 - Pass Details

Date: 06 October 2017
Orbit: 933 x 968 km, 82.5° (Epoch: 22 October)

Event Time Altitude Azimuth Distance (km) Brightness Sun altitude
Rises 20:15:48 0° 181° (S) 3,620 7.5 -14.1°
Reaches altitude 10° 20:18:18 10° 181° (S) 2,673 6.8 -14.6°
Maximum altitude 20:24:25 80° 94° (E) 965 4.4 -15.9°
Drops below altitude 10° 20:30:30 10° 9° (N) 2,664 6.7 -17.1°
Sets 20:32:59 0° 8° (N) 3,607 7.4 -17.6°
